Tillbaka till svenska Fidonet
English   Information   Debug  
FILM   0/18
FNEWS_PUBLISH   4482
FN_SYSOP   41747
FN_SYSOP_OLD1   71952
FTP_FIDO   0/2
FTSC_PUBLIC   0/13637
FUNNY   0/4886
GENEALOGY.EUR   0/71
GET_INFO   105
GOLDED   0/408
HAM   0/16100
HOLYSMOKE   0/6791
HOT_SITES   0/1
HTMLEDIT   0/71
HUB203   466
HUB_100   264
HUB_400   39
HUMOR   0/29
IC   0/2851
INTERNET   0/424
INTERUSER   0/3
IP_CONNECT   719
JAMNNTPD   0/233
JAMTLAND   0/47
KATTY_KORNER   0/41
LAN   0/16
LINUX-USER   0/19
LINUXHELP   0/1155
LINUX   0/22125
LINUX_BBS   0/957
mail   18.68
mail_fore_ok   249
MENSA   0/341
MODERATOR   0/102
MONTE   0/992
MOSCOW_OKLAHOMA   0/1245
MUFFIN   0/783
MUSIC   0/321
N203_STAT   936
N203_SYSCHAT   313
NET203   321
NET204   69
NET_DEV   0/10
NORD.ADMIN   0/101
NORD.CHAT   0/2572
NORD.FIDONET   189
NORD.HARDWARE   0/28
NORD.KULTUR   0/114
NORD.PROG   0/32
NORD.SOFTWARE   0/88
NORD.TEKNIK   0/58
NORD   0/453
OCCULT_CHAT   0/93
OS2BBS   0/787
OS2DOSBBS   0/580
OS2HW   0/42
OS2INET   0/37
OS2LAN   0/134
OS2PROG   0/36
OS2REXX   0/113
OS2USER-L   207
OS2   0/4804
OSDEBATE   0/18996
PASCAL   0/490
PERL   0/457
PHP   0/45
POINTS   0/405
POLITICS   0/29554
POL_INC   0/14731
PSION   103
R20_ADMIN   1124
R20_AMATORRADIO   0/2
R20_BEST_OF_FIDONET   13
R20_CHAT   0/893
R20_DEPP   0/3
R20_DEV   399
R20_ECHO2   1399
R20_ECHOPRES   0/35
R20_ESTAT   0/719
R20_FIDONETPROG...
...RAM.MYPOINT
  0/2
R20_FIDONETPROGRAM   0/22
R20_FIDONET   0/248
R20_FILEFIND   0/24
R20_FILEFOUND   0/22
R20_HIFI   0/3
R20_INFO2   3289
R20_INTERNET   0/12940
R20_INTRESSE   0/60
R20_INTR_KOM   0/99
R20_KANDIDAT.CHAT   42
R20_KANDIDAT   28
R20_KOM_DEV   112
R20_KONTROLL   0/13340
R20_KORSET   0/18
R20_LOKALTRAFIK   0/24
R20_MODERATOR   0/1852
R20_NC   76
R20_NET200   245
R20_NETWORK.OTH...
...ERNETS
  0/13
R20_OPERATIVSYS...
...TEM.LINUX
  0/44
R20_PROGRAMVAROR   0/1
R20_REC2NEC   534
R20_SFOSM   0/341
R20_SF   0/108
R20_SPRAK.ENGLISH   0/1
R20_SQUISH   107
R20_TEST   2
R20_WORST_OF_FIDONET   12
RAR   0/9
RA_MULTI   106
RA_UTIL   0/162
REGCON.EUR   0/2056
REGCON   0/13
SCIENCE   0/1206
SF   0/239
SHAREWARE_SUPPORT   0/5146
SHAREWRE   0/14
SIMPSONS   0/169
STATS_OLD1   0/2539.065
STATS_OLD2   0/2530
STATS_OLD3   0/2395.095
STATS_OLD4   0/1692.25
SURVIVOR   0/495
SYSOPS_CORNER   0/3
SYSOP   0/84
TAGLINES   0/112
TEAMOS2   0/4530
TECH   0/2617
TEST.444   0/105
TRAPDOOR   0/19
TREK   0/755
TUB   0/290
UFO   0/40
UNIX   0/1316
USA_EURLINK   0/102
USR_MODEMS   0/1
VATICAN   0/2740
VIETNAM_VETS   0/14
VIRUS   0/378
VIRUS_INFO   0/201
VISUAL_BASIC   0/473
WHITEHOUSE   0/5187
WIN2000   0/101
WIN32   0/30
WIN95   0/4291
WIN95_OLD1   0/70272
WINDOWS   0/1517
WWB_SYSOP   0/419
WWB_TECH   0/810
ZCC-PUBLIC   0/1
ZEC   4

 
4DOS   0/134
ABORTION   0/7
ALASKA_CHAT   0/506
ALLFIX_FILE   0/1313
ALLFIX_FILE_OLD1   0/7997
ALT_DOS   0/152
AMATEUR_RADIO   0/1039
AMIGASALE   0/14
AMIGA   0/331
AMIGA_INT   0/1
AMIGA_PROG   0/20
AMIGA_SYSOP   0/26
ANIME   0/15
ARGUS   0/924
ASCII_ART   0/340
ASIAN_LINK   0/651
ASTRONOMY   0/417
AUDIO   0/92
AUTOMOBILE_RACING   0/105
BABYLON5   0/17862
BAG   135
BATPOWER   0/361
BBBS.ENGLISH   0/382
BBSLAW   0/109
BBS_ADS   0/5290
BBS_INTERNET   0/507
BIBLE   0/3563
BINKD   0/1119
BINKLEY   0/215
BLUEWAVE   0/2173
CABLE_MODEMS   0/25
CBM   0/46
CDRECORD   0/66
CDROM   0/20
CLASSIC_COMPUTER   0/378
COMICS   0/15
CONSPRCY   0/899
COOKING   34293
COOKING_OLD1   0/24719
COOKING_OLD2   0/40862
COOKING_OLD3   0/37489
COOKING_OLD4   0/35496
COOKING_OLD5   9370
C_ECHO   0/189
C_PLUSPLUS   0/31
DIRTY_DOZEN   0/201
DOORGAMES   0/2069
DOS_INTERNET   0/196
duplikat   6002
ECHOLIST   0/18295
EC_SUPPORT   0/318
ELECTRONICS   0/359
ELEKTRONIK.GER   1534
ENET.LINGUISTIC   0/13
ENET.POLITICS   0/4
ENET.SOFT   0/11701
ENET.SYSOP   33971
ENET.TALKS   0/32
ENGLISH_TUTOR   0/2000
EVOLUTION   0/1335
FDECHO   0/217
FDN_ANNOUNCE   0/7068
FIDONEWS   24213
FIDONEWS_OLD1   0/49742
FIDONEWS_OLD2   0/35949
FIDONEWS_OLD3   0/30874
FIDONEWS_OLD4   0/37224
FIDO_SYSOP   12853
FIDO_UTIL   0/180
FILEFIND   0/209
FILEGATE   0/212
Möte HAM, 16100 texter
 lista första sista föregående nästa
Text 246, 736 rader
Skriven 2005-02-18 01:01:22 av Amsat List (1:323/120.0)
Ärende: 
========
SB KEPS @ AMSAT  $ORB05048.O
Orbital Elements  05048.OSCAR

HR AMSAT ORBITAL ELEMENTS FOR OSCAR SATELLITES
FROM WA5QGD FORT WORTH,TX February 17, 2005
SEND SUBSCRIBE/UNSUBSCRIBE TO majordomo@amsat.org ONLY
BID: ORB05048.O
TO ALL RADIO AMATEURS BT

Satellite: AO-07
Catalog number: 07530
Epoch time:      05047.96352894
Element set:    0397
Inclination:      101.6461 deg
RA of node:       096.5197 deg
Eccentricity:    0.0012290
Arg of perigee:   107.9770 deg
Mean anomaly:     252.2642 deg
Mean motion:   12.53570761 rev/day
Decay rate:       -2.8e-07 rev/day^2
Epoch rev:           38458
Checksum:              314

Satellite: AO-10
Catalog number: 14129
Epoch time:      05047.32950203
Element set:    0153
Inclination:      027.0697 deg
RA of node:       046.4573 deg
Eccentricity:    0.6033715
Arg of perigee:   165.7643 deg
Mean anomaly:     224.6324 deg
Mean motion:   02.05866007 rev/day
Decay rate:       -2.5e-07 rev/day^2
Epoch rev:           16304
Checksum:              274

Satellite: UO-11
Catalog number: 14781
Epoch time:      05047.66661335
Element set:    0716
Inclination:      098.1973 deg
RA of node:       042.8418 deg
Eccentricity:    0.0009590
Arg of perigee:   033.0704 deg
Mean anomaly:     327.1111 deg
Mean motion:   14.79162197 rev/day
Decay rate:       1.52e-06 rev/day^2
Epoch rev:           12398
Checksum:              297

Satellite: RS-10/11
Catalog number: 18129
Epoch time:      05047.90579892
Element set:    0616
Inclination:      082.9279 deg
RA of node:       327.1117 deg
Eccentricity:    0.0012306
Arg of perigee:   009.1074 deg
Mean anomaly:     351.0302 deg
Mean motion:   13.72754021 rev/day
Decay rate:        6.0e-07 rev/day^2
Epoch rev:           88457
Checksum:              289

Satellite: FO-20
Catalog number: 20480
Epoch time:      05047.62812490
Element set:    0825
Inclination:      099.0188 deg
RA of node:       244.7775 deg
Eccentricity:    0.0540814
Arg of perigee:   152.8468 deg
Mean anomaly:     210.2052 deg
Mean motion:   12.83344832 rev/day
Decay rate:       -3.1e-07 rev/day^2
Epoch rev:           70403
Checksum:              286

Satellite: RS-12/13
Catalog number: 21089
Epoch time:      05047.39853035
Element set:    0840
Inclination:      082.9241 deg
RA of node:       000.5265 deg
Eccentricity:    0.0030826
Arg of perigee:   057.5318 deg
Mean anomaly:     302.8810 deg
Mean motion:   13.74446814 rev/day
Decay rate:        3.1e-07 rev/day^2
Epoch rev:           70390
Checksum:              281

Satellite: RS-15
Catalog number: 23439
Epoch time:      05047.96121007
Element set:    0852
Inclination:      064.8236 deg
RA of node:       301.9901 deg
Eccentricity:    0.0161138
Arg of perigee:   337.3797 deg
Mean anomaly:     022.0080 deg
Mean motion:   11.27551299 rev/day
Decay rate:       -3.9e-07 rev/day^2
Epoch rev:           41783
Checksum:              296

Satellite: FO-29
Catalog number: 24278
Epoch time:      05047.66455568
Element set:    0895
Inclination:      098.5646 deg
RA of node:       113.4214 deg
Eccentricity:    0.0351263
Arg of perigee:   128.5666 deg
Mean anomaly:     234.7501 deg
Mean motion:   13.52908640 rev/day
Decay rate:       -4.0e-07 rev/day^2
Epoch rev:           41989
Checksum:              332

Satellite: SO-33
Catalog number: 25509
Epoch time:      05047.24074834
Element set:    0303
Inclination:      031.4319 deg
RA of node:       356.2138 deg
Eccentricity:    0.0355879
Arg of perigee:   188.9923 deg
Mean anomaly:     170.4225 deg
Mean motion:   14.27963730 rev/day
Decay rate:       2.27e-06 rev/day^2
Epoch rev:           32952
Checksum:              312

Satellite: AO-40
Catalog number: 26609
Epoch time:      05046.30387159
Element set:    0499
Inclination:      008.5803 deg
RA of node:       319.9753 deg
Eccentricity:    0.7962355
Arg of perigee:   008.2613 deg
Mean anomaly:     359.3416 deg
Mean motion:   01.25586543 rev/day
Decay rate:      -3.60e-06 rev/day^2
Epoch rev:           01973
Checksum:              328

/EX
SB KEPS @ AMSAT  $ORB05048.D
Orbital Elements  05048.MICROS

HR AMSAT ORBITAL ELEMENTS FOR THE MICROSATS
FROM WA5QGD FORT WORTH,TX February 17, 2005
SEND SUBSCRIBE/UNSUBSCRIBE TO majordomo@amsat.org ONLY
BID: ORB05048.D
TO ALL RADIO AMATEURS BT

Satellite: UO-14
Catalog number: 20437
Epoch time:      05046.00522181
Element set:    0711
Inclination:      098.1979 deg
RA of node:       062.5375 deg
Eccentricity:    0.0010307
Arg of perigee:   193.3437 deg
Mean anomaly:     166.7484 deg
Mean motion:   14.31397807 rev/day
Decay rate:       -4.0e-07 rev/day^2
Epoch rev:           78655
Checksum:              302

Satellite: AO-16
Catalog number: 20439
Epoch time:      05047.63965425
Element set:    0397
Inclination:      098.2209 deg
RA of node:       079.2340 deg
Eccentricity:    0.0010621
Arg of perigee:   196.2344 deg
Mean anomaly:     163.8503 deg
Mean motion:   14.31659924 rev/day
Decay rate:        5.6e-07 rev/day^2
Epoch rev:           78684
Checksum:              319

Satellite: WO-18
Catalog number: 20441
Epoch time:      05047.23123814
Element set:    0592
Inclination:      098.2331 deg
RA of node:       083.1041 deg
Eccentricity:    0.0011198
Arg of perigee:   198.2631 deg
Mean anomaly:     161.8157 deg
Mean motion:   14.31734105 rev/day
Decay rate:        3.7e-07 rev/day^2
Epoch rev:           78684
Checksum:              281

Satellite: LO-19
Catalog number: 20442
Epoch time:      05047.68301761
Element set:    0328
Inclination:      098.2414 deg
RA of node:       087.8524 deg
Eccentricity:    0.0011395
Arg of perigee:   197.0118 deg
Mean anomaly:     163.0685 deg
Mean motion:   14.31906259 rev/day
Decay rate:        5.2e-07 rev/day^2
Epoch rev:           78697
Checksum:              315

